Regional Weather Roundup
Issued by NWS

Home | Current Version | Previous Version | Graphics & Text | Print | Product List | Glossary On
Versions: 1 2 3 4 5 6 7 8 9 10 11 12 13 14 15 16 17 18 19 20 21 22 23 24 25 26 27 28 29 30 31 32 33 34 35 36 37 38 39 40 41 42 43 44 45 46 47 48 49 50
000
ASUS43 KLSX 302010
RWRMO

WEATHER SUMMARY FOR MISSOURI
NATIONAL WEATHER SERVICE SPRINGFIELD MO
300 PM CDT SUN APR 30 2017

NOTE: "FAIR" INDICATES FEW OR NO CLOUDS BELOW 12,000 FEET WITH NO
       SIGNIFICANT WEATHER AND/OR OBSTRUCTIONS TO VISIBILITY.
       CURRENT SKY AND/OR WEATHER CONDITIONS ARE NOT AVAILABLE FOR
       CHILLICOTHE AND FARMINGTON.

MOZ001>031-035>038-043-044-053-054-302100-
...NORTHERN AND WESTERN MISSOURI...

CITY           SKY/WX    TMP DP  RH WIND       PRES   REMARKS
KANSAS CTY INT CLOUDY    56  51  84 S13       29.49F
KANSAS C DTWN  PTSUNNY  N/A N/A N/A S18G26    29.48F
LEE`S SUMMIT   MOSUNNY   60  49  66 S20G29    29.50F
ST JOSEPH      LGT RAIN  53  53 100 E9        29.49F
CHILLICOTHE      N/A     52  52 100 S7        29.51R
KIRKSVILLE     LGT RAIN  50  31  48 E13       29.51F

$$
MOZ066>068-077>081-088>096-101>105-302100-
...SOUTHWEST MISSOURI...

CITY           SKY/WX    TMP DP  RH WIND       PRES   REMARKS
SPRINGFIELD    MOSUNNY   65  51  60 SW24G35   29.52S
JOPLIN         PTSUNNY   58  43  57 SW28G41   29.55R
BRANSON        PTSUNNY   64  45  48 SW17G25   29.58R

$$
MOZ032>034-039>042-045>050-055>058-069>072-302100-
...CENTRAL MISSOURI...

CITY           SKY/WX    TMP DP  RH WIND       PRES   REMARKS
COLUMBIA       CLOUDY    72  67  84 SE20G25   29.44F
JEFFERSON CITY CLOUDY    75  66  73 SE14      29.44F
ROLLA          CLOUDY    73  65  75 S22G28    29.48R
SEDALIA        CLOUDY    61  58  90 W12       29.50S
WHITEMAN AFB   PTSUNNY   58  58 100 SW10      29.49R
OSAGE BEACH    CLOUDY    72  55  55 S17G26    29.47S

$$
MOZ051-052-059>065-302100-
...EAST CENTRAL MISSOURI...

CITY           SKY/WX    TMP DP  RH WIND       PRES   REMARKS
ST LOUIS INTL  CLOUDY    70  64  81 SE18G31   29.58F
SPIRIT OF STL  CLOUDY    69  66  90 SE10      29.54F
ST CHARLES     CLOUDY    67  65  93 SE15      29.56F

$$
MOZ072>076-082>087-097>100-106>115-302100-
...SOUTH CENTRAL AND SOUTHEAST MISSOURI...

CITY           SKY/WX    TMP DP  RH WIND       PRES   REMARKS
CAPE GIRARDEAU CLOUDY    71  66  84 S20       29.65F
FARMINGTON     CLOUDY    69  66  90 SE17G25   29.59F
POPLAR BLUFF   CLOUDY    70  66  87 S20G26    29.62F
WEST PLAINS    CLOUDY    70  59  68 S13G26    29.56

$$



USA.gov is the U.S. government's official web portal to all federal, state and local government web resources and services.